This is the latest recevied weather packets stored in our database for station/object N5GC-2. If no packets are shown the sender has not sent any weather packets the latest 10 day(s).
| Time | Temp. | Humidity | Pressure | Rain* | Wind** | Luminosity | Snow |
|---|---|---|---|---|---|---|---|
| 1777978548 | 17.78° C | 86% | - | 0 mm | - | - | - |
| 1777978244 | 17.78° C | 83% | - | 0 mm | - | - | - |
| 1777977941 | 17.78° C | 81% | - | 0 mm | - | - | - |
| 1777977639 | 18.33° C | 77% | - | 0 mm | - | - | - |
| 1777977335 | 18.89° C | 75% | - | 0 mm | - | - | - |
| 1777977033 | 18.89° C | 72% | - | 1.78 mm | - | - | - |
| 1777976729 | 19.44° C | 70% | - | 1.78 mm | - | - | - |
| 1777976427 | 20° C | 70% | - | 3.56 mm | - | - | - |
| 1777976125 | 20° C | 65% | - | 3.56 mm | - | - | - |
| 1777975821 | 20° C | 62% | - | 0 mm | - | - | - |
| 1777975519 | 20° C | 60% | - | 0 mm | - | - | - |
| 1777975216 | 20° C | 60% | - | 0 mm | - | - | - |
| 1777974911 | 20° C | 60% | - | 0 mm | - | - | - |
| 1777974608 | 20° C | 60% | - | 0 mm | - | - | - |
| 1777974304 | 20° C | 60% | - | 0 mm | - | - | - |
| 1777974001 | 20° C | 60% | - | 0 mm | - | - | - |
| 1777973697 | 20° C | 59% | - | 0 mm | - | - | - |
| 1777973395 | 20° C | 59% | - | 0 mm | - | - | - |
| 1777973092 | 20° C | 59% | - | 0 mm | - | - | - |
| 1777972790 | 20° C | 59% | - | 0 mm | - | - | - |
| 1777972487 | 20° C | 59% | - | 0 mm | - | - | - |
| 1777972185 | 20° C | 59% | - | 0 mm | - | - | - |
| 1777971883 | 20° C | 58% | - | 0 mm | - | - | - |
| 1777971580 | 20° C | 58% | - | 0 mm | - | - | - |
| 1777971278 | 19.44° C | 58% | - | 0 mm | - | - | - |
* Rain latest hour (hover to see other rain measurements)
** Current wind speed in m/s (hover to see current wind gust speed)